Powrót do katalogu

SL-16 DEB

AktywnySSO
NORAD 25863·DEBRIS·🇷🇺 Russia

Wystrzelony Jul 17, 1999 z Baikonur Cosmodrome

Loading…

Następne Przeloty (najbliższe 24 godziny)

TLE

ŚwieżeSource: Space-Track

Epoka: Sep 14, 2026, 03:14 UTC

1 25863U 99039D   26257.13516507  .00000331  00000-0  92690-4 0  9991
2 25863  98.3571 326.6892 0145832 291.9356  96.2056 14.46865621427962

Śledź SL-16 DEB w czasie rzeczywistym z AllMySat

Download on the App Store